Regional Weather Roundup
Issued by NWS Charleston, SC

Current Version | Previous Version | Graphics & Text | Print | Product List | Glossary On
Versions: 1 2 3 4 5 6 7 8 9 10 11 12 13 14 15 16 17 18 19 20 21 22 23 24 25 26 27 28 29 30 31 32 33 34 35 36 37 38 39 40 41 42 43 44 45 46 47 48 49 50
000
ASUS42 KCHS 171710
RWRCHS
REGIONAL WEATHER ROUNDUP
NATIONAL WEATHER SERVICE CHARLESTON SC
100 PM EDT WED SEP 17 2014

NOTE: "FAIR" INDICATES FEW OR NO CLOUDS BELOW 12,000 FEET WITH NO
SIGNIFICANT WEATHER AND/OR OBSTRUCTIONS TO VISIBILITY.

NOT ALL STATIONS ARE QUALITY CONTROLLED BY THE NATIONAL
WEATHER SERVICE. USE DATA WITH CAUTION...ESPECIALLY
DEWPOINT OBSERVATIONS.

SCZ027-030-031-034>040-042>050-171800-
...SOUTH CAROLINA...

CITY           SKY/WX    TMP DP  RH WIND       PRES   REMARKS
N CHARLESTON   PTSUNNY   84  70  62 VRB6      29.91F
WATERFRONT PRK   N/A     81 N/A N/A E16         N/A
FORT JOHNSON   NOT AVBL
MOUNT PLEASANT FAIR      82  72  69 E6        29.92F
JOHNS ISLAND   PTSUNNY   81  81 100 E12G20    29.92S HX  91
PINOPOLIS        N/A     81  68  65 NE3       29.86F
MONCKS CORNER    N/A     81  72  74 N3        29.93S
SUMMERVILLE    FAIR      82  73  74 NE7       29.92F
BEAUFORT MCAS  MOSUNNY   84  72  67 CALM      29.91F
BEAUFORT ARPT  PTSUNNY   82  73  74 SW3       29.91S
HILTON HEAD IS MOSUNNY   82  72  69 NE6       29.92F
GEORGETOWN     NOT AVBL
WALTERBORO     MOSUNNY   82  70  65 S5        29.93S
ORANGEBURG     CLOUDY    82  68  62 NE3       29.93F
BARNWELL       FAIR      82  72  69 CALM      29.92F
AIKEN          CLOUDY    73  73 100 CALM      29.98S
MANNING        CLOUDY    79  70  73 CALM      29.93F
KINGSTREE      NOT AVBL
COLUMBIA       CLOUDY    80  66  62 NE6       29.92F
SUMTER         CLOUDY    74  64  71 VRB3      29.94F
FLORENCE       SUNNY     76  66  71 CALM      29.94F
MYRTLE BEACH   MOSUNNY   82  66  57 CALM      29.92F
N MYRTLE BEACH MOSUNNY   82  65  56 CALM      29.92F

$$

GAZ063-065-086>088-099>101-113>116-118-119-134-136>141-150-171800-
...GEORGIA...

CITY           SKY/WX    TMP DP  RH WIND       PRES   REMARKS
SAVANNAH ARPT  MOSUNNY   88  72  58 CALM      29.91F HX  94
HUNTER AAF     SUNNY     85  73  67 VRB1      29.89F HX  92
FORT STEWART   MOSUNNY   84  71  64 E3        29.90F
STATESBORO     NOT AVBL
SYLVANIA       NOT AVBL
CLAXTON        NOT AVBL
THOMSON        SUNNY     82  76  82 NW3       29.97F
AUGUSTA-BUSH   MOSUNNY   80  70  71 NW3       29.91F
AUGUSTA-DANIEL MOSUNNY   82  69  64 CALM      29.93F
SWAINSBORO     FAIR      88  72  58 N3        29.93F HX  94
VIDALIA        SUNNY     88  70  55 N5        29.93F HX  92
ALMA           SUNNY     88  70  55 VRB5      29.92F HX  93
WAYCROSS       MOSUNNY   89  74  60 CALM      29.92F HX  98
JESUP          CLOUDY    90  73  58 N3        29.91F HX  98
BRUNSWICK      SUNNY     88  68  51 CALM      29.92F HX  91
SAINT SIMONS   MOSUNNY   85  70  60 E10       29.92S

$$

SCZ027-028-034-036>038-045-046-048>050-GAZ119-141-171800-
...LAKE AND SUPPLEMENTAL COASTAL OBSERVATIONS...

STATION/POSITION TIME  TEMP    WIND        PRES    WAVE   SWELL
                       AIR SEA DIR/SP/G            HT/PER HT/PER/DIR
                 (UTC) (F)     (DEG/KT/KT) (MB)    (FT/S) (FT/S/D)
UPR LAKE MARION  NOT AVBL
WINYAH BAY       NOT AVBL
LAKE MURRAY      1600   75      40/  3/  6 1013.2F
ACE BASIN NERRS  NOT AVBL
FORT PULASKI     1700   80      70/  8/  9 1013.4S
SAPELO ISLAND    NOT AVBL

$$

ANZ835-935-AMZ111-154-330-350-352-354-374-450-454-472-171800-
...C-MAN AND BUOY OBSERVATIONS...

STATION/POSITION TIME  TEMP    WIND        PRES    WAVE   SWELL
                       AIR SEA DIR/SP/G            HT/PER HT/PER/DIR
                 (UTC) (F)     (DEG/KT/KT) (MB)    (FT/S) (FT/S/D)
FOLLY BEACH CMAN 1600   81      80/ 10/ 11 1013.9S
BUOY 41004       1700   78 83   30/ 12/ 14 1012.6F   4/15   3/15
BUOY 41008       1700   81 85   50/  4/  8 1013.0F   2/14   2/100/14
5E ST. MARYS GA  1600      84                N/A     2/13   2/100/13
FRYING PAN BUOY  NOT AVBL
BUOY 41025       1700   75      60/ 14/ 17 1013.0F   6/ 7   5/ 40/ 7
CAPE LOOKOUT NC  1600   77     150/ 10/ 11 1013.1F
BUOY 41002       1621   75 82  120/  4/  4 1011.9F   6/13   5/ 90/13
BUOY 41010       1700   76 85  250/ 17/ 27 1012.9F   5/15   3/110/15
BUOY 41012       NOT AVBL
ST AUGUSTINE FL  1700   80      30/  7/  8 1014.1F
CAPERS NEARSHORE NOT AVBL
FRIPP NEARSHORE  NOT AVBL


$$


USA.gov is the U.S. government's official web portal to all federal, state and local government web resources and services.